GW3746 Weather Reports


time (UTC)temp
F
wind
direction
speed
knots
gust
knots
rain 1hr
in
rain 24hr
in
rain mn
in
humidity
%
barometer
mb
20260507093514 43 218 4.3 9.6 0.00 0.00 0.00 81 1001.1
20260507093013 43 273 4.3 7.8 0.00 0.00 0.00 81 1001.2
20260507092509 43 257 7.0 11.3 0.00 0.00 0.00 80 1001.2
20260507092006 43 266 5.2 9.6 0.00 0.00 0.00 80 1001.4
20260507091502 43 235 2.6 6.1 0.00 0.00 0.00 80 1001.4
20260507090958 43 234 4.3 9.6 0.00 0.00 0.00 80 1001.3
20260507090454 43 212 4.3 8.7 0.00 0.00 0.00 81 1001.3
20260507085950 43 236 4.3 6.1 0.00 0.00 0.00 81 1001.7
20260507085448 43 256 4.3 7.0 0.00 0.00 0.00 81 1001.6
20260507084944 43 198 6.1 8.7 0.00 0.00 0.00 81 1001.4
20260507084442 43 235 7.8 12.2 0.00 0.00 0.00 80 1001.5
20260507083938 43 242 7.8 13.0 0.00 0.00 0.00 80 1001.4
20260507083435 44 237 5.2 13.0 0.00 0.00 0.00 80 1001.6
20260507082931 44 271 4.3 9.6 0.00 0.00 0.00 80 1001.6
20260507082427 44 279 5.2 13.0 0.00 0.00 0.00 79 1001.4
20260507081924 44 252 7.8 8.7 0.00 0.00 0.00 80 1001.5
20260507081420 44 236 8.7 9.6 0.00 0.00 0.00 80 1001.6
20260507080917 44 232 9.6 11.3 0.00 0.00 0.00 80 1001.8
20260507080414 44 236 7.0 9.6 0.00 0.00 0.00 80 1001.6
20260507075909 44 198 3.5 11.3 0.00 0.00 0.00 81 1001.9
20260507075405 44 252 4.3 7.8 0.00 0.00 0.00 81 1001.9
20260507074902 44 272 4.3 11.3 0.00 0.00 0.00 81 1001.8
20260507074359 44 202 6.1 11.3 0.00 0.00 0.00 81 1002.2
20260507073856 44 245 5.2 11.3 0.00 0.00 0.00 81 1002.0
20260507073353 44 236 3.5 9.6 0.00 0.00 0.00 81 1002.4
20260507072850 44 216 5.2 12.2 0.00 0.00 0.00 80 1002.3
20260507072347 44 221 7.0 11.3 0.00 0.00 0.00 80 1002.5
20260507071845 44 230 9.6 13.0 0.00 0.00 0.00 81 1002.6
20260507071342 44 235 4.3 11.3 0.00 0.00 0.00 81 1002.9
20260507070838 44 222 7.8 11.3 0.00 0.00 0.00 81 1002.8
20260507070335 44 254 7.0 12.2 0.00 0.00 0.00 81 1003.0
20260507065832 44 249 5.2 13.9 0.00 0.00 0.00 81 1002.9
20260507065329 44 234 5.2 11.3 0.00 0.00 0.00 81 1003.0
20260507064826 44 234 5.2 8.7 0.00 0.00 0.00 80 1003.1
20260507064324 44 233 8.7 12.2 0.00 0.00 0.00 80 1003.1
20260507063822 44 235 7.8 12.2 0.00 0.00 0.00 79 1003.1
20260507063318 44 231 5.2 13.0 0.00 0.00 0.00 80 1003.2
20260507062815 45 230 7.8 11.3 0.00 0.00 0.00 79 1003.3
20260507062312 45 220 7.0 12.2 0.00 0.00 0.00 79 1003.3
20260507061810 45 232 9.6 12.2 0.00 0.00 0.00 79 1003.3
20260507061308 45 245 7.8 11.3 0.00 0.00 0.00 79 1003.2
20260507060806 45 240 8.7 11.3 0.00 0.00 0.00 79 1003.2
20260507060303 45 255 6.1 12.2 0.00 0.00 0.00 79 1003.3
20260507055759 45 184 8.7 12.2 0.00 0.00 0.00 78 1003.4
20260507055254 45 239 3.5 7.0 0.00 0.00 0.00 78 1003.5
20260507054751 45 249 3.5 7.0 0.00 0.00 0.00 78 1003.4
20260507054247 45 233 5.2 8.7 0.00 0.00 0.00 78 1003.6
20260507053745 45 216 3.5 7.0 0.00 0.00 0.00 77 1003.8
20260507053242 45 219 5.2 9.6 0.00 0.00 0.00 77 1003.6
20260507052741 46 263 5.2 11.3 0.00 0.00 0.00 76 1003.6
20260507052237 46 212 4.3 12.2 0.00 0.00 0.00 76 1003.9
20260507051736 46 252 5.2 12.2 0.00 0.00 0.00 76 1003.9
20260507051232 46 249 6.1 13.0 0.00 0.00 0.00 75 1003.8
20260507050728 46 241 5.2 8.7 0.00 0.00 0.00 75 1003.9
20260507050226 46 235 5.2 11.3 0.00 0.00 0.00 74 1004.0
20260507045722 46 256 2.6 7.8 0.00 0.00 0.00 73 1003.8
20260507045218 46 228 6.1 8.7 0.00 0.00 0.00 72 1003.9
20260507044716 46 238 6.1 9.6 0.00 0.00 0.00 71 1004.0
20260507044212 46 207 7.0 9.6 0.00 0.00 0.00 70 1004.0
20260507043709 46 242 9.6 12.2 0.00 0.00 0.00 69 1004.0
20260507043205 46 253 4.3 9.6 0.00 0.00 0.00 68 1004.0
20260507042702 47 242 8.7 9.6 0.00 0.00 0.00 67 1004.2
20260507042156 47 226 7.8 8.7 0.00 0.00 0.00 67 1004.2
20260507041654 47 257 5.2 9.6 0.00 0.00 0.00 65 1004.3
20260507041150 47 210 4.3 8.7 0.00 0.00 0.00 65 1004.4
20260507040648 47 221 6.1 8.7 0.00 0.00 0.00 64 1004.3
20260507040144 48 235 5.2 7.8 0.00 0.00 0.00 63 1004.2
20260507035640 48 232 5.2 7.0 0.00 0.00 0.00 63 1004.3
20260507035136 48 198 5.2 7.0 0.00 0.00 0.00 62 1004.5
20260507034633 48 228 3.5 9.6 0.00 0.00 0.00 62 1004.5
20260507034131 48 238 7.0 9.6 0.00 0.00 0.00 61 1004.4
20260507033629 48 228 4.3 6.1 0.00 0.00 0.00 61 1004.7
20260507033126 49 232 4.3 8.7 0.00 0.00 0.00 60 1004.6
20260507032623 49 252 4.3 8.7 0.00 0.00 0.00 60 1004.5
20260507032119 49 197 3.5 5.2 0.00 0.00 0.00 60 1004.7
20260507031616 49 207 5.2 11.3 0.00 0.00 0.00 59 1004.8
20260507031112 50 226 3.5 7.8 0.00 0.00 0.00 59 1004.7
20260507030608 50 235 5.2 9.6 0.00 0.00 0.00 58 1004.7
20260507030107 50 223 7.0 9.6 0.00 0.00 0.00 59 1004.7
20260507025603 50 209 5.2 7.0 0.00 0.00 0.00 59 1004.5
20260507025100 50 219 3.5 8.7 0.00 0.00 0.00 59 1004.5
20260507024559 50 237 5.2 7.8 0.00 0.00 0.00 59 1004.7
20260507024055 50 236 5.2 7.8 0.00 0.00 0.00 58 1004.5
20260507023550 50 224 5.2 7.8 0.00 0.00 0.00 58 1004.5
20260507023048 51 200 2.6 12.2 0.00 0.00 0.00 58 1004.5
20260507022545 51 206 4.3 9.6 0.00 0.00 0.00 59 1004.4
20260507022040 51 245 5.2 9.6 0.00 0.00 0.00 60 1004.4
20260507021537 51 257 6.1 7.8 0.00 0.00 0.00 60 1004.4
20260507021033 51 213 6.1 8.7 0.00 0.00 0.00 60 1004.5
20260507020531 51 230 5.2 7.8 0.00 0.00 0.00 60 1004.5
20260507020027 51 217 7.0 8.7 0.00 0.00 0.00 60 1004.4
20260507015526 52 199 2.6 6.1 0.00 0.00 0.00 59 1004.5
20260507015023 52 193 3.5 7.8 0.00 0.00 0.00 58 1004.4
20260507014519 52 224 5.2 7.8 0.00 0.00 0.00 57 1004.5
20260507014015 52 259 5.2 7.8 0.00 0.00 0.00 56 1004.6
20260507013512 52 231 3.5 7.8 0.00 0.00 0.00 55 1004.4
20260507013009 53 228 4.3 7.0 0.00 0.00 0.00 54 1004.5
20260507012506 53 234 5.2 7.8 0.00 0.00 0.00 53 1004.3
20260507012002 53 278 3.5 8.7 0.00 0.00 0.00 52 1004.5
20260507011500 53 217 2.6 5.2 0.00 0.00 0.00 52 1004.3
20260507010955 54 231 4.3 7.0 0.00 0.00 0.00 52 1004.3
20260507010450 54 217 5.2 11.3 0.00 0.00 0.00 51 1004.3
20260507005947 54 205 0.0 9.6 0.00 0.00 0.00 51 1004.3
20260507005445 55 274 1.7 7.8 0.00 0.00 0.00 49 1004.3
20260507004941 55 222 5.2 7.0 0.00 0.00 0.00 47 1004.1
20260507004437 55 229 3.5 5.2 0.00 0.00 0.00 46 1004.2
20260507003935 55 272 1.7 6.1 0.00 0.00 0.00 46 1004.1
20260507003430 56 259 8.7 11.3 0.00 0.00 0.00 46 1004.4
20260507002925 56 236 3.5 7.0 0.00 0.00 0.00 45 1004.2
20260507002422 56 260 5.2 7.8 0.00 0.00 0.00 45 1004.0
20260507001919 56 210 6.1 9.6 0.00 0.00 0.00 44 1004.1
20260507001416 56 264 5.2 9.6 0.00 0.00 0.00 44 1004.0
20260507000914 56 296 4.3 7.0 0.00 0.00 0.00 44 1004.2
20260507000408 56 247 7.8 9.6 0.00 0.00 0.00 44 1004.2
20260506235904 57 263 8.7 11.3 0.00 0.00 0.00 42 1004.2
20260506235402 57 291 2.6 7.0 0.00 0.00 0.00 42 1004.2
20260506234857 57 241 5.2 7.8 0.00 0.00 0.00 43 1004.3
20260506234355 57 210 7.0 7.8 0.00 0.00 0.00 43 1004.2
20260506233853 57 258 5.2 7.8 0.00 0.00 0.00 41 1004.3
20260506233349 58 228 5.2 7.0 0.00 0.00 0.00 42 1004.4
20260506232846 58 239 5.2 8.7 0.00 0.00 0.00 40 1004.4
20260506232342 57 316 4.3 7.8 0.00 0.00 0.00 42 1004.4
20260506231838 56 296 1.7 1.7 0.00 0.00 0.00 43 1004.5
20260506231336 55 278 0.9 3.5 0.00 0.00 0.00 45 1004.4
20260506230833 55 246 1.7 2.6 0.00 0.00 0.00 44 1004.5
20260506230330 55 198 0.0 1.7 0.00 0.00 0.00 46 1004.5
20260506225826 56 254 0.0 3.5 0.00 0.00 0.00 43 1004.4
20260506225323 56 260 2.6 2.6 0.00 0.00 0.00 43 1004.7
20260506224820 56 278 2.6 6.1 0.00 0.00 0.00 43 1004.7
20260506224317 55 237 0.0 6.1 0.00 0.00 0.00 42 1004.6
20260506223814 56 258 5.2 6.1 0.00 0.00 0.00 40 1004.7
20260506223309 56 204 6.1 7.8 0.00 0.00 0.00 40 1004.8
20260506222806 56 277 1.7 6.1 0.00 0.00 0.00 41 1004.7
20260506222305 56 218 5.2 7.8 0.00 0.00 0.00 40 1004.7
20260506221754 56 228 3.5 5.2 0.00 0.00 0.00 40 1004.7
20260506221251 56 239 2.6 6.1 0.00 0.00 0.00 40 1004.8
20260506220749 56 230 5.2 7.0 0.00 0.00 0.00 39 1004.8
20260506220243 56 217 6.1 8.7 0.00 0.00 0.00 40 1004.9
20260506215741 56 243 3.5 7.0 0.00 0.00 0.00 38 1004.9
20260506215236 57 233 3.5 6.1 0.00 0.00 0.00 38 1005.1
20260506214733 57 244 0.0 0.0 0.00 0.00 0.00 36 1004.8
20260506214230 56 229 0.0 5.2 0.00 0.00 0.00 38 1004.9
20260506213728 56 275 0.9 2.6 0.00 0.00 0.00 37 1005.1
20260506213225 55 244 1.7 5.2 0.00 0.00 0.00 37 1004.9
20260506212722 56 305 3.5 7.8 0.00 0.00 0.00 36 1005.1
20260506212218 57 321 5.2 7.0 0.00 0.00 0.00 37 1005.2
20260506211713 57 286 1.7 6.1 0.00 0.00 0.00 36 1005.1
20260506211210 58 333 4.3 6.1 0.00 0.00 0.00 36 1005.4
20260506210707 56 303 1.7 2.6 0.00 0.00 0.00 37 1005.2
20260506210204 57 210 3.5 5.2 0.00 0.00 0.00 36 1005.6
20260506205702 56 300 0.9 1.7 0.00 0.00 0.00 35 1005.6
20260506205202 57 285 2.6 7.0 0.00 0.00 0.00 37 1005.8
20260506204659 57 284 3.5 7.0 0.00 0.00 0.00 34 1005.8
20260506204156 57 345 2.6 3.5 0.00 0.00 0.00 35 1005.8
20260506203654 56 266 2.6 6.1 0.00 0.00 0.00 38 1005.8
20260506203151 55 269 3.5 6.1 0.00 0.00 0.00 36 1006.0
20260506202649 55 329 4.3 7.8 0.00 0.00 0.00 37 1006.1
20260506202145 56 15 3.5 6.1 0.00 0.00 0.00 36 1006.0
20260506201642 56 232 1.7 2.6 0.00 0.00 0.00 36 1005.9
20260506201138 56 176 3.5 7.0 0.00 0.00 0.00 38 1006.0
20260506200635 55 294 0.9 3.5 0.00 0.00 0.00 38 1006.1
20260506200132 55 337 0.9 5.2 0.00 0.00 0.00 37 1006.1
20260506195628 55 307 2.6 6.1 0.00 0.00 0.00 37 1006.1
20260506195125 56 287 1.7 6.1 0.00 0.00 0.00 37 1006.2
20260506194622 55 275 4.3 7.0 0.00 0.00 0.00 36 1006.2
20260506194118 56 320 4.3 8.7 0.00 0.00 0.00 36 1006.3
20260506193617 55 243 4.3 6.1 0.00 0.00 0.00 38 1006.3
20260506193114 54 220 2.6 3.5 0.00 0.00 0.00 37 1006.3
20260506192610 55 209 3.5 5.2 0.00 0.00 0.00 38 1006.4
20260506192106 57 305 3.5 8.7 0.00 0.00 0.00 38 1006.4
20260506191603 55 249 2.6 5.2 0.00 0.00 0.00 39 1006.5
20260506191059 54 279 0.0 2.6 0.00 0.00 0.00 38 1006.5
20260506190556 55 299 3.5 5.2 0.00 0.00 0.00 36 1006.5
20260506190053 55 243 3.5 8.7 0.00 0.00 0.00 39 1006.6
20260506185550 54 193 3.5 6.1 0.00 0.00 0.00 40 1006.7
20260506185047 55 182 1.7 2.6 0.00 0.00 0.00 43 1006.8
20260506184544 56 124 2.6 3.5 0.00 0.00 0.00 39 1007.0
20260506184042 53 301 0.0 7.0 0.00 0.00 0.00 37 1007.1
20260506183537 53 209 2.6 2.6 0.00 0.00 0.00 40 1007.0
20260506183034 55 240 3.5 6.1 0.00 0.00 0.00 38 1007.0
20260506182532 54 205 2.6 7.0 0.00 0.00 0.00 40 1007.2
20260506182029 54 280 3.5 5.2 0.00 0.00 0.00 36 1007.1
20260506181527 54 31 0.9 3.5 0.00 0.00 0.00 37 1007.3
20260506181023 54 324 3.5 7.0 0.00 0.00 0.00 38 1007.3
20260506180520 54 318 0.9 6.1 0.00 0.00 0.00 37 1007.3
20260506180016 55 224 4.3 8.7 0.00 0.00 0.00 37 1007.3
20260506175513 53 177 0.9 5.2 0.00 0.00 0.00 41 1007.4
20260506175009 53 209 4.3 6.1 0.00 0.00 0.00 36 1007.4
20260506174508 53 311 0.0 0.9 0.00 0.00 0.00 37 1007.5
20260506174003 54 357 0.0 0.0 0.00 0.00 0.00 38 1007.5
20260506173502 53 243 0.0 0.9 0.00 0.00 0.00 39 1007.6
20260506172958 53 198 1.7 2.6 0.00 0.00 0.00 39 1007.4
20260506172456 53 303 0.0 3.5 0.00 0.00 0.00 37 1007.6
20260506171951 53 330 4.3 5.2 0.00 0.00 0.00 37 1007.6
20260506171449 53 313 3.5 3.5 0.00 0.00 0.00 38 1007.5
20260506170947 54 344 4.3 6.1 0.00 0.00 0.00 37 1007.5
20260506170443 56 99 0.0 0.9 0.00 0.00 0.00 40 1007.5
20260506165942 54 207 0.0 0.9 0.00 0.00 0.00 37 1007.5
20260506165440 51 354 0.0 2.6 0.00 0.00 0.00 38 1007.5
20260506164930 52 302 1.7 1.7 0.00 0.00 0.00 38 1007.6
20260506164427 52 0 0.0 0.0 0.00 0.00 0.00 39 1007.4
20260506163925 51 308 0.0 5.2 0.00 0.00 0.00 39 1007.4
20260506163419 51 25 0.0 0.9 0.00 0.00 0.00 40 1007.5
20260506162914 52 31 0.0 1.7 0.00 0.00 0.00 39 1007.5
20260506162413 52 210 0.0 0.0 0.00 0.00 0.00 41 1007.5
20260506161910 52 283 1.7 5.2 0.00 0.00 0.00 37 1007.6
20260506161408 52 177 0.0 5.2 0.00 0.00 0.00 43 1007.5
20260506160905 50 215 0.0 1.7 0.00 0.00 0.00 40 1007.7
20260506160402 50 288 0.9 2.6 0.00 0.00 0.00 38 1007.5
20260506155900 51 245 4.3 6.1 0.00 0.00 0.00 39 1007.5
20260506155356 53 326 1.7 5.2 0.00 0.00 0.00 42 1007.5
20260506153513 50 318 2.6 7.0 0.00 0.00 0.00 41 1007.8
20260506153011 51 279 2.6 2.6 0.00 0.00 0.00 41 1007.8
20260506152508 50 320 1.7 3.5 0.00 0.00 0.00 42 1007.6
20260506152006 51 336 3.5 5.2 0.00 0.00 0.00 39 1007.7
20260506151503 51 43 0.0 0.0 0.00 0.00 0.00 45 1007.7
20260506151000 50 324 0.0 0.0 0.00 0.00 0.00 42 1007.7
20260506150456 50 303 0.0 0.0 0.00 0.00 0.00 39 1007.6
20260506145953 50 274 0.0 0.9 0.00 0.00 0.00 41 1007.7
20260506145449 50 328 1.7 2.6 0.00 0.00 0.00 41 1007.5
20260506144947 50 195 0.0 0.0 0.00 0.00 0.00 45 1007.6
20260506144444 50 268 0.0 5.2 0.00 0.00 0.00 43 1007.4
20260506143942 50 287 0.0 0.0 0.00 0.00 0.00 44 1007.6
20260506143439 49 0 0.0 0.0 0.00 0.00 0.00 49 1007.6
20260506142937 49 260 0.0 0.0 0.00 0.00 0.00 45 1007.7
20260506142435 48 323 0.0 1.7 0.00 0.00 0.00 46 1007.7
20260506141932 48 320 0.9 2.6 0.00 0.00 0.00 47 1007.7
20260506141430 47 6 0.0 0.9 0.00 0.00 0.00 48 1007.5
20260506140929 48 359 0.0 0.0 0.00 0.00 0.00 54 1007.5
20260506140425 46 359 0.0 1.7 0.00 0.00 0.00 49 1007.4
20260506135922 46 318 0.0 0.9 0.00 0.00 0.00 62 1007.5
20260506135419 45 353 0.9 0.9 0.00 0.00 0.00 63 1007.5
20260506134915 44 321 0.9 1.7 0.00 0.00 0.00 65 1007.4
20260506134411 44 328 0.9 0.9 0.00 0.00 0.00 68 1007.5
20260506133909 43 248 0.9 0.9 0.00 0.00 0.00 68 1007.4
20260506133405 43 323 0.0 0.9 0.00 0.00 0.00 69 1007.4
20260506132902 43 314 1.7 1.7 0.00 0.00 0.00 69 1007.3
20260506132359 42 334 1.7 1.7 0.00 0.00 0.00 69 1007.2
20260506131857 42 300 0.9 1.7 0.00 0.00 0.00 70 1007.3
20260506131353 42 333 0.9 2.6 0.00 0.00 0.00 71 1007.3
20260506130850 42 306 0.9 1.7 0.00 0.00 0.00 73 1007.2
20260506130346 42 347 1.7 2.6 0.00 0.00 0.00 73 1007.1
20260506125845 42 336 1.7 1.7 0.00 0.00 0.00 72 1007.2
20260506125343 42 328 0.9 1.7 0.00 0.00 0.00 74 1006.8
20260506124841 41 341 1.7 2.6 0.00 0.00 0.00 75 1006.6
20260506124337 41 307 0.0 1.7 0.00 0.00 0.00 75 1006.8
20260506123835 41 335 1.7 1.7 0.00 0.00 0.00 74 1006.6
20260506123333 41 335 1.7 1.7 0.00 0.00 0.00 77 1006.5
20260506122830 41 311 0.9 1.7 0.00 0.00 0.00 77 1006.6
20260506122327 40 292 0.9 0.9 0.00 0.00 0.00 76 1006.6
20260506121826 40 278 0.9 0.9 0.00 0.00 0.00 76 1006.3
20260506121322 40 283 0.0 0.0 0.00 0.00 0.00 76 1006.4
20260506120819 40 329 1.7 2.6 0.00 0.00 0.00 77 1006.3
20260506120317 40 318 0.9 1.7 0.00 0.00 0.00 76 1006.2
20260506115814 40 299 0.9 1.7 0.00 0.00 0.00 77 1006.1
20260506115313 40 303 0.0 0.9 0.00 0.00 0.00 79 1006.1
20260506114810 40 299 0.9 0.9 0.00 0.00 0.00 79 1006.0
20260506114308 40 298 0.0 0.0 0.00 0.00 0.00 80 1006.0
20260506113806 40 285 0.0 0.9 0.00 0.00 0.00 80 1006.0
20260506113303 40 306 0.0 0.9 0.00 0.00 0.00 79 1006.0
20260506112759 40 308 0.9 0.9 0.00 0.00 0.00 80 1005.9
20260506112257 40 308 0.9 1.7 0.00 0.00 0.00 83 1005.8
20260506111754 40 297 0.9 0.9 0.00 0.00 0.00 83 1005.8
20260506111252 40 300 0.0 0.9 0.00 0.00 0.00 82 1005.7
20260506110749 40 299 0.0 0.9 0.00 0.00 0.00 81 1005.8
20260506110247 39 304 0.9 0.9 0.00 0.00 0.00 82 1005.7
20260506105743 40 317 0.9 1.7 0.00 0.00 0.00 82 1005.7
20260506105240 40 321 0.9 1.7 0.00 0.00 0.00 83 1005.7
20260506104738 40 310 0.9 0.9 0.00 0.00 0.00 85 1005.5
20260506104235 40 310 0.0 0.9 0.00 0.00 0.00 86 1005.4
20260506103732 40 309 0.0 0.9 0.00 0.00 0.00 88 1005.5
20260506103229 40 307 0.0 0.9 0.00 0.00 0.00 88 1005.5
20260506102727 40 307 0.0 0.0 0.00 0.00 0.00 88 1005.2
20260506102225 40 313 0.0 0.9 0.00 0.00 0.00 88 1005.5
20260506101721 40 317 0.0 0.9 0.00 0.00 0.00 88 1005.6
20260506101218 40 325 0.0 0.9 0.00 0.00 0.00 88 1005.4
20260506100716 40 325 0.9 1.7 0.00 0.00 0.00 87 1005.1
20260506100214 40 320 0.9 0.9 0.00 0.00 0.00 87 1005.2
20260506095712 41 319 0.0 1.7 0.00 0.00 0.00 87 1005.2
20260506095209 41 320 0.9 0.9 0.00 0.00 0.00 87 1005.2
20260506094706 41 318 0.0 0.9 0.00 0.00 0.00 87 1005.2
20260506094204 41 318 0.9 0.9 0.00 0.00 0.00 87 1005.4